{"data":{"norad_id":49076,"intl_designator":"2021-075B","name":"ONEWEB-0286","alt_names":[],"object_type":"PAYLOAD","status":"ACTIVE","operator":null,"country":"UK","launch_date":"2021-08-21","launch_site_code":"TYMSC","launch_vehicle":null,"mission":null,"orbit_class":"UNKNOWN","rcs_meters":null,"size_class":null,"mass_kg":null,"dimensions":null,"purposes":["comms"],"wikipedia_slug":null,"has_3d_model":false,"image_url":null,"decayed_at":null,"tle_current":{"epoch":"2026-05-25T02:16:43.355136Z","epoch_age_seconds":63371,"freshness":"FRESH","line1":"1 49076U 21075B   26145.09494624  .00000237  00000+0  62361-3 0  9999","line2":"2 49076  87.8948 355.2731 0001961  88.4301 271.7052 13.12442441231533","mean_motion":13.12442441,"eccentricity":0.0001961,"inclination_deg":87.8948,"raan_deg":355.2731,"arg_perigee_deg":88.4301,"mean_anomaly_deg":271.7052,"bstar":0.00062361,"rev_number":23153,"period_min":109.71909738783,"perigee_km":1212.2366825226,"apogee_km":1215.2142109742,"semimajor_km":7591.8624467484,"source":"CELESTRAK","updated_at":"2026-05-25T13:38:22.480637Z"}}}